Regional Weather Roundup
Issued by NWS Green Bay, WI

Home | Current Version | Previous Version | Graphics & Text | Print | Product List | Glossary Off
Versions: 1 2 3 4 5 6 7 8 9 10 11 12 13 14 15 16 17 18 19 20 21 22 23 24 25 26 27 28 29 30 31 32 33 34 35 36 37 38 39 40 41 42 43 44 45 46 47 48 49 50

000
ASUS43 KGRB 301611
RWRGRB

NORTH-CENTRAL AND NORTHEAST WISCONSIN REGIONAL WEATHER ROUNDUP
NATIONAL WEATHER SERVICE GREEN BAY WI
1100 AM CDT SAT JUL 30 2016

WIZ005-009-010>012-018-019-301700-
NORTH CENTRAL WISCONSIN

CITY           SKY/WX    TMP DP  RH WIND       PRES   REMARKS
IRONWOOD       CLOUDY    73  55  53 SW5       30.06S
MANITOWISH WTR CLOUDY    68  59  72 E3        30.10S
ARBOR VITAE    SUNNY     73  56  53 SE7       30.10S
EAGLE RIVER    SUNNY     74  52  46 SE7       30.10S
LAND O LAKES   PTSUNNY   73  52  47 SE8       30.12S
RHINELANDER    SUNNY     73  58  59 E8        30.10F
PHILLIPS       SUNNY     73  56  55 E8        30.08S
ANTIGO           N/A     70  59  68 E10       30.10S HAZE
TOMAHAWK       SUNNY     73  57  58 E5        30.09S
MERRILL        SUNNY     73  62  69 E6        30.09S
$$

WIZ013-073-301700-
NORTHEAST WISCONSIN

CITY           SKY/WX    TMP DP  RH WIND       PRES   REMARKS
IRON MOUNTAIN  MOSUNNY   74  51  44 SE8       30.09F
MARINETTE      SUNNY    N/A N/A N/A E10       30.09S
OCONTO         SUNNY     72  58  62 E9        30.08S
$$

WIZ017-030-035>037-045-301700-
CENTRAL WISCONSIN

CITY           SKY/WX    TMP DP  RH WIND       PRES   REMARKS
MEDFORD        CLOUDY    71  58  63 SE5       30.08S
WAUSAU         SUNNY     72  60  66 NE8       30.06S
MOSINEE        SUNNY     73  63  68 E7        30.08S
MARSHFIELD     SUNNY     75  61  61 E6        30.06S
WISC RAPIDS    CLOUDY    72  60  66 E6        30.07S
STEVENS POINT  CLOUDY    72  58  62 CALM      30.07S
WAUPACA        SUNNY     76  61  59 E9        30.06S
SHAWANO        SUNNY     76  58  53 E7        30.08S
CLINTONVILLE   SUNNY     73  55  53 NE9       30.06F
WAUTOMA        SUNNY     72  62  71 E10         N/A
$$

WIZ038-039-048-051-301700-
FOX VALLEY

CITY           SKY/WX    TMP DP  RH WIND       PRES   REMARKS
NWS GREEN BAY  SUNNY     74  60  61 NE13      30.06S
APPLETON       PTSUNNY   73  54  49 NE10G17   30.05S
OSHKOSH        SUNNY     73  59  61 NE12      30.04F
FOND DU LAC    SUNNY     75  61  61 NE12      30.05S
$$

WIZ022-050-052-301700-
EAST CENTRAL WISCONSIN

CITY           SKY/WX    TMP DP  RH WIND       PRES   REMARKS
EPHRAIM        FAIR      73  54  51 E9G16     30.09R
WASHINGTON ISL NOT AVBL
STURGEON BAY   SUNNY     73  55  53 E10       30.09S
MANITOWOC      MOSUNNY   71  59  65 NE8       30.06S
SHEBOYGAN      CLOUDY    70  60  70 NE14      30.05S
$$

LMZ563-521-522-541>543-301700-
LAKESHORE

STATION/POSITION TIME  TEMP    WIND        PRES    VSBY  WAVE
                       AIR SEA DIR/SP/G                  HT/PER
                 (UTC) (F)     (DEG/KT/KT) (MB)    (MI)  (FT/S)
SHEBOYGAN LKSHOR 1600   67      40/ 11/ 11 1017.7S
KEWAUNEE LKSHORE 1500   70      60/  5/  8 1017.8R
ALGOMA MARINA    1513           70/ 13/ 15   N/A
NORTHPORT PIER   1500   71      90/  8/ 10 1018.6F
N MID LAKE BUOY  1550   69 70   70/  8/ 10 1018.4R         1
S GREEN BAY BUOY 1500   70 71   60/ 12/ 14 1017.9
SISTER BAY LKSHO 1536   74     160/ 12/ 15   N/A
CHAMBERS ISLAND  1500   71      80/  8/ 11 1018.6R
MENOMINEE LKSHOR 1500   72      80/  9/ 11 1017.8R
$$




USA.gov is the U.S. government's official web portal to all federal, state and local government web resources and services.